Weather History for KI16 - March, 2012

Change the Weather History Date:

Thursday, March 15, 2012

  Actual Average (KBKW) Record (KBKW)
Temperature  
Mean Temperature 52 °F 42 °F  
Max Temperature 60 °F 51 °F 81 °F (1927)
Min Temperature 44 °F 32 °F 1 °F (1993)
Degree Days  
Heating Degree Days 13 23  
Month to date heating degree days 382  
Since 1 July heating degree days 4383  
Cooling Degree Days 0 0  
Month to date cooling degree days 0  
Year to date cooling degree days 0  
Growing Degree Days 2 (Base 50)    
Moisture  
Dew Point 51 °F    
Average Humidity 97    
Maximum Humidity 100    
Minimum Humidity 87    
Precipitation  
Precipitation 0.00 in 0.12 in 1.09 in (1912)
Month to date precipitation 1.68  
Year to date precipitation 7.25  
Snow  
Snow 0.00 in - - ()
Month to date snowfall  
Since 1 September snowfall  
Snow Depth -    
Sea Level Pressure  
Sea Level Pressure 30.31 in    
Wind  
Wind Speed 0 mph (East)    
Max Wind Speed 9 mph    
Max Gust Speed 21 mph    
Visibility 8 miles    
Events Rain    
T = Trace of Precipitation, MM = Missing Value Source: NWS Daily Summary

Daily Weather History Graph

Daily Weather History Graph

Search for Another Location

Airport or City:

Trip Planner

Search our weather history database for the weather conditions in past years. The results will help you decide how hot, cold, wet, or windy it might be!

Date:

Astronomy

Mar. 15, 2012 Rise Set
Actual Time 7:36 AM EDT 7:33 PM EDT
Civil Twilight 7:10 AM EDT 8:00 PM EDT
Nautical Twilight 6:40 AM EDT 8:30 PM EDT
Astronomical Twilight 6:09 AM EDT 9:01 PM EDT
Moon 2:56 AM EDT (3/15) 12:56 PM EDT (3/15)
Length of Visible Light 12h 49m
Length of Day
11h 57m
Last Quarter, 43% of the Moon is Illuminated
Mar 15
Last Quarter
Mar 22
New
Mar 30
First Quarter
Apr 6
Full
Apr 13
Last Quarter

Hourly Weather History & Observations

Time (EDT) Temp. Dew Point Humidity Pressure Visibility Wind Dir Wind Speed Gust Speed Precip Events Conditions
12:15 AM 51.8 °F 48.2 °F 88% 30.28 in 10.0 mi Calm Calm - N/A   Clear
12:35 AM 51.8 °F 48.2 °F 88% 30.28 in 10.0 mi Calm Calm - N/A   Scattered Clouds
12:55 AM 50.0 °F 48.2 °F 94% 30.28 in 10.0 mi Calm Calm - N/A   Scattered Clouds
1:15 AM 50.0 °F 48.2 °F 94% 30.28 in 10.0 mi Calm Calm - N/A   Clear
1:35 AM 50.0 °F 46.4 °F 87% 30.28 in 10.0 mi Calm Calm - N/A   Clear
1:55 AM 50.0 °F 46.4 °F 87% 30.29 in 10.0 mi Calm Calm - N/A   Clear
2:15 AM 50.0 °F 46.4 °F 87% 30.29 in 10.0 mi Calm Calm - N/A   Clear
2:35 AM 48.2 °F 46.4 °F 93% 30.29 in 10.0 mi Calm Calm - N/A   Clear
2:55 AM 48.2 °F 46.4 °F 93% 30.29 in 10.0 mi Calm Calm - N/A   Clear
3:15 AM 48.2 °F 46.4 °F 93% 30.29 in 10.0 mi Calm Calm - N/A   Clear
3:35 AM 46.4 °F 46.4 °F 100% 30.29 in 10.0 mi Calm Calm - N/A   Clear
3:55 AM 46.4 °F 46.4 °F 100% 30.28 in 10.0 mi Calm Calm - N/A   Clear
4:15 AM 46.4 °F 46.4 °F 100% 30.28 in 10.0 mi Calm Calm - N/A   Clear
4:35 AM 46.4 °F 46.4 °F 100% 30.27 in 10.0 mi Calm Calm - N/A   Clear
4:55 AM 46.4 °F 46.4 °F 100% 30.27 in 10.0 mi Calm Calm - N/A   Clear
5:15 AM 46.4 °F 44.6 °F 93% 30.28 in 10.0 mi Calm Calm - N/A   Clear
5:35 AM 46.4 °F 44.6 °F 93% 30.28 in 10.0 mi Calm Calm - N/A   Clear
5:55 AM 44.6 °F 44.6 °F 100% 30.28 in 10.0 mi Calm Calm - N/A   Clear
6:15 AM 44.6 °F 44.6 °F 100% 30.28 in 10.0 mi Calm Calm - N/A   Clear
6:35 AM 44.6 °F 44.6 °F 100% 30.29 in 10.0 mi Calm Calm - N/A   Scattered Clouds
6:55 AM 44.6 °F 44.6 °F 100% 30.29 in 10.0 mi Calm Calm - N/A   Scattered Clouds
7:15 AM 46.4 °F 46.4 °F 100% 30.30 in 10.0 mi Calm Calm - N/A   Mostly Cloudy
7:35 AM 46.4 °F 46.4 °F 100% 30.30 in 10.0 mi Calm Calm - N/A   Mostly Cloudy
7:55 AM 46.4 °F 46.4 °F 100% 30.31 in 10.0 mi Calm Calm - N/A   Mostly Cloudy
8:15 AM 48.2 °F 46.4 °F 93% 30.29 in 10.0 mi Calm Calm - N/A   Mostly Cloudy
8:35 AM 50.0 °F 48.2 °F 94% 30.30 in 10.0 mi Calm Calm - N/A   Mostly Cloudy
8:55 AM 50.0 °F 48.2 °F 94% 30.32 in 10.0 mi Calm Calm - N/A   Scattered Clouds
9:15 AM 50.0 °F 48.2 °F 94% 30.31 in 10.0 mi Calm Calm - N/A   Scattered Clouds
9:35 AM 50.0 °F 48.2 °F 94% 30.32 in 10.0 mi Calm Calm - N/A   Mostly Cloudy
9:55 AM 51.8 °F 50.0 °F 94% 30.33 in 10.0 mi Calm Calm - N/A Rain Light Rain
10:15 AM 51.8 °F 51.8 °F 100% 30.39 in 1.8 mi SE 4.6 mph - N/A Rain Rain
10:35 AM 53.6 °F 53.6 °F 100% 30.38 in 2.5 mi Calm Calm - N/A Rain Rain
10:55 AM 53.6 °F 53.6 °F 100% 30.39 in 3.0 mi Calm Calm - N/A Rain Light Rain
11:15 AM 55.4 °F 55.4 °F 100% 30.38 in 4.0 mi ESE 6.9 mph - N/A Rain Rain
11:35 AM 53.6 °F 53.6 °F 100% 30.38 in 1.5 mi SE 3.5 mph - N/A Rain Rain
11:55 AM 53.6 °F 53.6 °F 100% 30.38 in 2.0 mi Calm Calm - N/A Rain Rain
12:35 PM 55.4 °F 55.4 °F 100% 30.38 in 3.0 mi SE 4.6 mph - N/A Rain Heavy Rain
12:55 PM 55.4 °F 55.4 °F 100% 30.36 in 5.0 mi Calm Calm - N/A Rain Rain
1:15 PM 55.4 °F 55.4 °F 100% 30.36 in 7.0 mi Calm Calm - N/A Rain Light Rain
1:35 PM 55.4 °F 55.4 °F 100% 30.33 in 10.0 mi Calm Calm - N/A   Overcast
2:15 PM 60.8 °F 59.0 °F 94% 30.32 in 10.0 mi NE 3.5 mph - N/A   Overcast
2:35 PM 60.8 °F 59.0 °F 94% 30.32 in 10.0 mi Calm Calm - N/A   Mostly Cloudy
2:55 PM 60.8 °F 57.2 °F 88% 30.36 in 10.0 mi North 9.2 mph 20.7 mph N/A   Overcast
3:15 PM 59.0 °F 57.2 °F 94% 30.35 in 5.0 mi Calm Calm - N/A Rain Rain
3:35 PM 59.0 °F 59.0 °F 100% 30.35 in 3.0 mi Calm Calm - N/A Rain Light Rain
3:55 PM 59.0 °F 59.0 °F 100% 30.35 in 4.0 mi Calm Calm - N/A Rain Light Rain
4:15 PM 59.0 °F 59.0 °F 100% 30.35 in 2.0 mi Calm Calm - N/A Rain Heavy Rain
4:35 PM 57.2 °F 57.2 °F 100% 30.35 in 4.0 mi Calm Calm - N/A Rain Light Rain
4:55 PM 57.2 °F 57.2 °F 100% 30.31 in 4.0 mi ESE 4.6 mph - N/A Rain Light Rain
5:15 PM 57.2 °F 57.2 °F 100% 30.29 in 10.0 mi Calm Calm - N/A Rain Light Rain
5:35 PM 57.2 °F 57.2 °F 100% 30.28 in 7.0 mi NW 4.6 mph - N/A   Light Drizzle
5:55 PM 57.2 °F 57.2 °F 100% 30.27 in 4.0 mi Calm Calm - N/A   Clear
6:15 PM 57.2 °F 57.2 °F 100% 30.27 in 4.0 mi Calm Calm - N/A   Clear
6:35 PM 55.4 °F 55.4 °F 100% 30.24 in 1.8 mi Calm Calm - N/A   Mist
6:55 PM 55.4 °F 55.4 °F 100% 30.23 in 3.0 mi Calm Calm - N/A   Clear
7:15 PM 55.4 °F 55.4 °F 100% 30.23 in 4.0 mi Calm Calm - N/A   Clear
7:35 PM 55.4 °F 55.4 °F 100% 30.23 in 1.8 mi Calm Calm - N/A   Scattered Clouds
7:55 PM 53.6 °F 53.6 °F 100% 30.23 in 1.0 mi Calm Calm - N/A   Mostly Cloudy
8:15 PM 53.6 °F 53.6 °F 100% 30.23 in 2.5 mi Calm Calm - N/A   Scattered Clouds
8:35 PM 53.6 °F 53.6 °F 100% 30.24 in 0.8 mi Calm Calm - N/A   Mostly Cloudy
8:55 PM 53.6 °F 53.6 °F 100% 30.25 in 2.0 mi Calm Calm - N/A   Mostly Cloudy
9:15 PM 53.6 °F 53.6 °F 100% 30.25 in 4.0 mi Calm Calm - N/A   Mostly Cloudy
9:35 PM 51.8 °F 51.8 °F 100% 30.26 in 1.0 mi Calm Calm - N/A   Overcast
9:55 PM 51.8 °F 51.8 °F 100% 30.27 in 1.0 mi Calm Calm - N/A   Overcast
10:15 PM 51.8 °F 51.8 °F 100% 30.27 in 0.8 mi Calm Calm - N/A   Overcast
10:35 PM 53.6 °F 53.6 °F 100% 30.28 in 3.0 mi Calm Calm - N/A   Mostly Cloudy
10:55 PM 51.8 °F 51.8 °F 100% 30.29 in 2.5 mi Calm Calm - N/A   Scattered Clouds
11:15 PM 51.8 °F 51.8 °F 100% 30.30 in 4.0 mi Calm Calm - N/A   Mostly Cloudy
11:35 PM 51.8 °F 51.8 °F 100% 30.31 in 5.0 mi Calm Calm - N/A   Overcast
11:55 PM 51.8 °F 51.8 °F 100% 30.31 in 0.8 mi Calm Calm - N/A   Overcast